Location: Callao
(39.8979°N, 113.7141°W)
Time: 07:08:47
(UTC+00:00)

QB50P2 - Visible Passes

Search period start: 11 May 2021 00:00
Search period end: 21 May 2021 00:00
Orbit: 594 x 608 km, 97.9° (Epoch: 10 May)

Date Brightness Start Highest point End Pass type
(mag) Time Alt. Az. Time Alt. Az. Time Alt. Az.
11 May ? 07:31:18 10° NE 07:31:58 12° ENE 07:31:58 12° ENE visible
11 May ? 09:06:00 10° N 09:08:45 31° NNW 09:08:45 31° NNW visible
12 May ? 07:42:17 10° NE 07:43:38 16° ENE 07:43:38 16° ENE visible
12 May ? 09:17:40 10° N 09:20:25 26° NW 09:20:25 26° NW visible
13 May ? 07:53:27 10° NE 07:55:18 21° NE 07:55:18 21° NE visible
13 May ? 09:29:26 10° NNW 09:32:05 22° NW 09:32:05 22° NW visible
14 May ? 08:04:42 10° NNE 08:06:58 27° NE 08:06:58 27° NE visible
14 May ? 09:41:19 10° NNW 09:43:45 17° WNW 09:43:45 17° WNW visible
15 May ? 08:16:03 10° NNE 08:18:38 34° NE 08:18:38 34° NE visible
15 May ? 09:53:25 10° NW 09:55:24 13° WNW 09:55:24 13° WNW visible
16 May ? 08:27:26 10° NNE 08:30:17 41° NNE 08:30:17 41° NNE visible
17 May ? 08:38:55 10° N 08:41:57 46° N 08:41:57 46° N visible
18 May ? 08:50:26 10° N 08:53:36 45° NNW 08:53:36 45° NNW visible
19 May ? 07:27:39 10° NE 07:28:29 13° ENE 07:28:29 13° ENE visible
19 May ? 09:02:01 10° N 09:05:15 38° NW 09:05:15 38° NW visible
20 May ? 07:38:32 10° NE 07:40:08 17° ENE 07:40:08 17° ENE visible
20 May ? 09:13:39 10° N 09:16:55 31° NW 09:16:55 31° NW visible
